Regional Weather Roundup
Issued by NWS

Home | Current Version | Previous Version | Graphics & Text | Print | Product List | Glossary On
Versions: 1 2 3 4 5 6 7 8 9 10 11 12 13 14 15 16 17 18 19 20 21 22 23 24 25 26 27 28 29 30 31 32 33 34 35 36 37 38 39 40 41 42 43 44 45 46 47 48 49 50
000
ASUS43 KBIS 160010
RWRND

NORTH DAKOTA REGIONAL WEATHER ROUNDUP
NATIONAL WEATHER SERVICE BISMARCK ND
600 PM CST FRI DEC 15 2017

NOTE: "FAIR" INDICATES FEW OR NO CLOUDS BELOW 12,000 FEET WITH NO
SIGNIFICANT WEATHER AND/OR OBSTRUCTIONS TO VISIBILITY.


NDZ001>003-009>011-017-160100-
NORTHWEST NORTH DAKOTA

CITY           SKY/WX    TMP DP  RH WIND       PRES   REMARKS
WILLISTON      MOCLDY    41  25  52 W12       29.56R
MINOT          CLOUDY    40  25  55 W10       29.49R
MINOT AFB      CLOUDY    37  26  64 W8        29.48R
$$

NDZ018>021-031>035-040>046-160100-
SOUTHWEST NORTH DAKOTA

CITY           SKY/WX    TMP DP  RH WIND       PRES   REMARKS
BISMARCK       CLOUDY    41  24  51 W5        29.55S
6HR MIN TEMP:  36; 6HR MAX TEMP:  45;

DICKINSON      CLOUDY    38  22  52 W13       29.56R
GARRISON         N/A     39  24  55 W14       29.51F
6HR MIN TEMP:  35; 6HR MAX TEMP:  40;

HETTINGER ARPT CLOUDY    41  20  43 W17       29.61S
$$

NDZ004>008-012>016-024-026-027-054-160100-
NORTHEAST NORTH DAKOTA

CITY           SKY/WX    TMP DP  RH WIND       PRES   REMARKS
GRAND FORKS    LGT SNOW  23  21  92 SE12      29.64F FOG     WCI  12
GRND FRKS AFB  FLURRIES  22  20  92 SE9       29.63F WCI  12
DEVILS LAKE    LGT SNOW  28  27  96 SE9       29.54F FOG     WCI  19
$$

NDZ022-023-025-028>030-036>039-047>053-160100-
SOUTHEAST NORTH DAKOTA

CITY           SKY/WX    TMP DP  RH WIND       PRES   REMARKS
FARGO          LGT SNOW  28  26  92 SE10      29.64F FOG     WCI  19
6HR MIN TEMP:  23; 6HR MAX TEMP:  28; 6HR PCP:  0.02;

JAMESTOWN      CLOUDY    33  31  92 S7        29.55S
$$





USA.gov is the U.S. government's official web portal to all federal, state and local government web resources and services.